QPF
0.03 0.03 0.03 0.04 0.05 0.03 0.04 0.05 0.03 0.02 0.01 0.01 0.01 0.01 0.02 0.02 0.02 0.01 0.01 0.01 0.01 0.01 0.01 0.01 0.01 0.01 0.01 0.01 0.01 0.01 0.01 0.01 0.02 0.02 0.02 0.03 0.04 0.04
0.03 0.03 0.03 0.03 0.03 0.03 0.03 0.05 0.05 0.05 0.04 0.03 0.04 0.03 0.03 0.04 0.04 0.02 0.02 0.01 0.01 0.02 0.02 0.01 0.01 0.01 0.01 0.01 0.01 0.01 0.01 0.01 0.01 0.01 0.01 0.01 0.01 0.01
0.03 0.02 0.02 0.02 0.03 0.05 0.05 0.05 0.06 0.07 0.06 0.04 0.03 0.03 0.03 0.03 0.03 0.02 0.02 0.02 0.02 0.03 0.04 0.02 0.01 0.01 0.01 0.01 0.01 0.01 0.01 0.02 0.02 0.02 0.01 0.01 0.01 0.02
0.03 0.02 0.02 0.03 0.04 0.06 0.06 0.07 0.06 0.05 0.05 0.03 0.01 0.01 0.01 0.01 0.01 0.01 0.02 0.02 0.02 0.03 0.04 0.02 0.01 0.01 0.01 0.01 0.01 0.01 0.01 0.01 0.01 0.01 0.01 0.01 0.01 0.02
0.04 0.04 0.03 0.03 0.03 0.04 0.05 0.04 0.05 0.04 0.03 0.03 0.02 0.01 0.01 0.01 0.01 0.02 0.02 0.02 0.02 0.03 0.03 0.02 0.02 0.02 0.01 0.01 0.02 0.01 0.01 0.01 0.00 0.01 0.02 0.02 0.02 0.01
0.02 0.02 0.02 0.02 0.02 0.02 0.02 0.02 0.03 0.04 0.03 0.03 0.02 0.02 0.01 0.01 0.01 0.01 0.02 0.02 0.02 0.02 0.02 0.02 0.02 0.03 0.02 0.02 0.02 0.02 0.01 0.01 0.01 0.00 0.01 0.01 0.01 0.02
0.01 0.01 0.01 0.02 0.02 0.01 0.01 0.02 0.03 0.03 0.02 0.02 0.01 0.01 0.01 0.01 0.01 0.01 0.01 0.01 0.01 0.01 0.01 0.02 0.03 0.03 0.02 0.02 0.02 0.01 0.01 0.01 0.01 0.01 0.01 0.01 0.01 0.01
0.01 0.01 0.01 0.02 0.02 0.02 0.02 0.03 0.03 0.02 0.02 0.01 0.01 0.01 0.01 0.01 0.01 0.01 0.01 0.01 0.01 0.01 0.02 0.01 0.02 0.01 0.01 0.02 0.02 0.02 0.02 0.02 0.02 0.02 0.02 0.02 0.02 0.02
0.02 0.01 0.02 0.02 0.03 0.03 0.02 0.02 0.02 0.02 0.03 0.02 0.02 0.01 0.01 0.02 0.02 0.02 0.02 0.02 0.02 0.02 0.01 0.01 0.01 0.01 0.01 0.01 0.01 0.01 0.01 0.01 0.01 0.01 0.02 0.02 0.01 0.01
0.03 0.03 0.03 0.04 0.04 0.03 0.02 0.01 0.01 0.01 0.02 0.02 0.03 0.02 0.02 0.02 0.02 0.02 0.02 0.03 0.03 0.03 0.02 0.01 0.01 0.01 0.01 0.01 0.02 0.01 0.01 0.01 0.01 0.01 0.01 0.02 0.02 0.02
0.05 0.05 0.04 0.04 0.04 0.03 0.03 0.01 0.01 0.01 0.02 0.02 0.02 0.02 0.02 0.02 0.03 0.02 0.01 0.02 0.02 0.02 0.02 0.02 0.02 0.02 0.02 0.02 0.02 0.02 0.02 0.01 0.01 0.01 0.01 0.01 0.01 0.01
0.07 0.06 0.06 0.07 0.07 0.06 0.05 0.03 0.02 0.02 0.03 0.03 0.02 0.02 0.02 0.03 0.03 0.03 0.02 0.02 0.01 0.01 0.02 0.02 0.02 0.02 0.03 0.02 0.02 0.02 0.02 0.01 0.01 0.01 0.01 0.01 0.01 0.01
0.06 0.06 0.06 0.06 0.06 0.07 0.06 0.04 0.03 0.04 0.05 0.04 0.02 0.03 0.03 0.03 0.03 0.03 0.03 0.02 0.02 0.02 0.01 0.01 0.01 0.02 0.03 0.04 0.03 0.03 0.03 0.02 0.01 0.01 0.01 0.02 0.02 0.02
0.03 0.03 0.03 0.03 0.03 0.04 0.04 0.03 0.03 0.03 0.03 0.03 0.02 0.02 0.03 0.03 0.04 0.04 0.03 0.02 0.02 0.02 0.02 0.02 0.01 0.01 0.02 0.02 0.03 0.03 0.03 0.02 0.02 0.02 0.02 0.03 0.03 0.03
0.02 0.03 0.03 0.03 0.03 0.03 0.04 0.03 0.02 0.02 0.02 0.02 0.02 0.02 0.02 0.03 0.02 0.01 0.01 0.01 0.01 0.01 0.01 0.01 0.02 0.02 0.02 0.02 0.03 0.03 0.03 0.03 0.02 0.02 0.02 0.03 0.03 0.03
0.02 0.04 0.07 0.07 0.06 0.06 0.05 0.04 0.02 0.02 0.02 0.01 0.01 0.02 0.02 0.03 0.02 0.01 0.01 0.01 0.01 0.01 0.01 0.01 0.01 0.02 0.01 0.01 0.02 0.02 0.03 0.03 0.03 0.03 0.02 0.02 0.02 0.02
0.03 0.03 0.04 0.05 0.05 0.06 0.06 0.06 0.05 0.03 0.02 0.02 0.02 0.02 0.02 0.02 0.02 0.01 0.01 0.01 0.01 0.01 0.01 0.01 0.01 0.02 0.02 0.02 0.02 0.02 0.02 0.02 0.02 0.02 0.02 0.02 0.02 0.02
0.04 0.03 0.03 0.03 0.04 0.04 0.05 0.06 0.06 0.05 0.04 0.03 0.03 0.03 0.03 0.03 0.03 0.03 0.03 0.03 0.03 0.03 0.02 0.02 0.03 0.03 0.03 0.02 0.02 0.03 0.03 0.02 0.02 0.02 0.03 0.03 0.04 0.04
0.06 0.05 0.04 0.05 0.05 0.06 0.06 0.06 0.05 0.05 0.05 0.04 0.04 0.03 0.03 0.03 0.03 0.03 0.04 0.03 0.03 0.03 0.04 0.04 0.03 0.03 0.03 0.02 0.03 0.04 0.03 0.03 0.02 0.03 0.03 0.03 0.04 0.05
0.05 0.05 0.05 0.05 0.05 0.06 0.06 0.06 0.06 0.06 0.06 0.05 0.04 0.03 0.04 0.03 0.03 0.03 0.03 0.03 0.04 0.04 0.04 0.03 0.03 0.02 0.02 0.02 0.02 0.02 0.01 0.02 0.02 0.02 0.03 0.03 0.03 0.05
0.04 0.05 0.05 0.05 0.05 0.05 0.05 0.05 0.06 0.06 0.05 0.05 0.04 0.04 0.04 0.04 0.04 0.03 0.03 0.04 0.04 0.04 0.03 0.03 0.03 0.02 0.02 0.03 0.03 0.02 0.01 0.01 0.02 0.03 0.03 0.04 0.05 0.05
0.08 0.07 0.07 0.09 0.09 0.08 0.07 0.06 0.05 0.05 0.05 0.05 0.05 0.05 0.06 0.06 0.05 0.05 0.05 0.04 0.04 0.04 0.04 0.03 0.03 0.02 0.02 0.03 0.03 0.02 0.01 0.01 0.02 0.03 0.03 0.03 0.04 0.05
0.07 0.08 0.07 0.07 0.07 0.08 0.08 0.07 0.06 0.06 0.06 0.06 0.05 0.06 0.06 0.06 0.05 0.05 0.05 0.06 0.06 0.06 0.06 0.06 0.05 0.04 0.04 0.04 0.04 0.03 0.02 0.02 0.01 0.01 0.02 0.02 0.02 0.03
MSLP
1011.33 1011.27 1011.26 1011.27 1011.26 1011.18 1011.02 1010.77 1010.43 1010.02 1009.59 1009.16 1008.77 1008.46 1008.24 1008.13 1008.11 1008.18 1008.32 1008.52 1008.75 1009.01 1009.27 1009.52 1009.76 1009.97 1010.15 1010.30 1010.41 1010.49 1010.54 1010.57 1010.60 1010.63 1010.68 1010.77 1010.91 1011.12
1011.12 1010.99 1010.91 1010.85 1010.78 1010.67 1010.49 1010.23 1009.91 1009.54 1009.15 1008.78 1008.45 1008.18 1007.99 1007.88 1007.84 1007.88 1007.98 1008.13 1008.33 1008.56 1008.82 1009.09 1009.38 1009.66 1009.93 1010.18 1010.38 1010.53 1010.64 1010.69 1010.71 1010.71 1010.70 1010.71 1010.77 1010.90
1010.99 1010.78 1010.63 1010.50 1010.36 1010.19 1009.98 1009.71 1009.41 1009.07 1008.73 1008.42 1008.14 1007.93 1007.77 1007.68 1007.64 1007.65 1007.70 1007.80 1007.95 1008.13 1008.36 1008.64 1008.94 1009.27 1009.61 1009.92 1010.20 1010.43 1010.59 1010.69 1010.73 1010.73 1010.70 1010.68 1010.71 1010.80
1010.90 1010.63 1010.40 1010.19 1009.98 1009.75 1009.49 1009.21 1008.90 1008.59 1008.29 1008.03 1007.81 1007.65 1007.53 1007.46 1007.42 1007.41 1007.43 1007.48 1007.57 1007.71 1007.90 1008.15 1008.45 1008.80 1009.16 1009.53 1009.86 1010.15 1010.36 1010.51 1010.60 1010.63 1010.63 1010.63 1010.66 1010.75
1010.80 1010.47 1010.17 1009.89 1009.61 1009.32 1009.01 1008.68 1008.36 1008.05 1007.78 1007.56 1007.39 1007.27 1007.19 1007.14 1007.11 1007.09 1007.09 1007.10 1007.15 1007.24 1007.40 1007.61 1007.90 1008.24 1008.61 1008.99 1009.36 1009.69 1009.96 1010.16 1010.31 1010.40 1010.46 1010.51 1010.60 1010.73
1010.65 1010.27 1009.91 1009.57 1009.21 1008.85 1008.48 1008.12 1007.76 1007.45 1007.18 1006.97 1006.82 1006.73 1006.68 1006.65 1006.64 1006.62 1006.61 1006.61 1006.64 1006.70 1006.82 1007.01 1007.27 1007.60 1007.97 1008.35 1008.74 1009.10 1009.41 1009.67 1009.88 1010.05 1010.20 1010.34 1010.51 1010.71
1010.40 1009.98 1009.58 1009.17 1008.76 1008.33 1007.91 1007.49 1007.10 1006.75 1006.46 1006.25 1006.10 1006.02 1005.98 1005.97 1005.96 1005.96 1005.95 1005.96 1005.98 1006.04 1006.15 1006.33 1006.58 1006.89 1007.25 1007.64 1008.04 1008.43 1008.78 1009.10 1009.38 1009.63 1009.87 1010.12 1010.38 1010.68
1010.05 1009.60 1009.15 1008.69 1008.23 1007.75 1007.27 1006.80 1006.37 1005.98 1005.66 1005.42 1005.25 1005.16 1005.11 1005.10 1005.10 1005.11 1005.12 1005.13 1005.17 1005.24 1005.36 1005.55 1005.80 1006.12 1006.49 1006.89 1007.31 1007.72 1008.11 1008.48 1008.83 1009.17 1009.50 1009.85 1010.21 1010.60
1009.61 1009.12 1008.63 1008.13 1007.63 1007.11 1006.59 1006.08 1005.60 1005.17 1004.81 1004.53 1004.34 1004.21 1004.14 1004.11 1004.11 1004.12 1004.14 1004.17 1004.23 1004.32 1004.47 1004.69 1004.97 1005.30 1005.69 1006.12 1006.56 1007.01 1007.44 1007.87 1008.28 1008.69 1009.11 1009.54 1009.99 1010.46
1009.10 1008.56 1008.04 1007.51 1006.97 1006.43 1005.88 1005.34 1004.83 1004.37 1003.98 1003.66 1003.43 1003.26 1003.16 1003.10 1003.07 1003.07 1003.09 1003.13 1003.21 1003.33 1003.51 1003.76 1004.07 1004.45 1004.87 1005.33 1005.81 1006.30 1006.78 1007.25 1007.73 1008.20 1008.68 1009.18 1009.70 1010.23
1008.56 1007.98 1007.41 1006.85 1006.28 1005.72 1005.15 1004.60 1004.08 1003.61 1003.20 1002.85 1002.58 1002.38 1002.24 1002.14 1002.08 1002.05 1002.05 1002.09 1002.17 1002.31 1002.52 1002.80 1003.15 1003.57 1004.03 1004.54 1005.06 1005.59 1006.12 1006.65 1007.17 1007.69 1008.22 1008.77 1009.33 1009.91
1008.02 1007.39 1006.77 1006.17 1005.58 1005.00 1004.43 1003.87 1003.35 1002.88 1002.46 1002.10 1001.81 1001.58 1001.40 1001.27 1001.17 1001.11 1001.09 1001.11 1001.18 1001.33 1001.55 1001.85 1002.23 1002.68 1003.20 1003.75 1004.32 1004.89 1005.47 1006.03 1006.59 1007.15 1007.72 1008.29 1008.88 1009.49
1007.52 1006.82 1006.15 1005.50 1004.87 1004.26 1003.68 1003.12 1002.61 1002.14 1001.73 1001.37 1001.08 1000.84 1000.64 1000.48 1000.35 1000.26 1000.20 1000.20 1000.26 1000.40 1000.62 1000.94 1001.34 1001.83 1002.38 1002.97 1003.58 1004.20 1004.82 1005.42 1006.01 1006.60 1007.18 1007.77 1008.37 1008.99
1007.05 1006.28 1005.54 1004.83 1004.15 1003.50 1002.89 1002.32 1001.80 1001.34 1000.94 1000.60 1000.32 1000.08 999.88 999.71 999.56 999.45 999.38 999.35 999.40 999.53 999.76 1000.09 1000.51 1001.02 1001.60 1002.23 1002.89 1003.54 1004.19 1004.82 1005.44 1006.04 1006.63 1007.22 1007.83 1008.44
1006.63 1005.79 1004.97 1004.18 1003.42 1002.70 1002.04 1001.44 1000.90 1000.43 1000.04 999.71 999.44 999.21 999.03 998.87 998.73 998.62 998.55 998.53 998.58 998.72 998.96 999.30 999.75 1000.29 1000.90 1001.56 1002.25 1002.94 1003.62 1004.27 1004.90 1005.51 1006.10 1006.69 1007.28 1007.88
1006.25 1005.33 1004.43 1003.54 1002.69 1001.88 1001.14 1000.47 999.89 999.39 998.98 998.65 998.40 998.19 998.03 997.90 997.80 997.72 997.68 997.69 997.77 997.94 998.21 998.59 999.07 999.65 1000.30 1000.99 1001.72 1002.44 1003.14 1003.81 1004.45 1005.06 1005.65 1006.22 1006.79 1007.36
1005.90 1004.92 1003.93 1002.95 1001.98 1001.07 1000.22 999.46 998.80 998.25 997.80 997.46 997.20 997.01 996.88 996.79 996.74 996.72 996.74 996.81 996.96 997.19 997.52 997.96 998.49 999.12 999.81 1000.55 1001.31 1002.06 1002.78 1003.46 1004.11 1004.71 1005.28 1005.84 1006.38 1006.92
1005.60 1004.58 1003.51 1002.44 1001.37 1000.34 999.38 998.51 997.75 997.11 996.60 996.21 995.94 995.75 995.65 995.60 995.60 995.66 995.76 995.92 996.16 996.49 996.91 997.42 998.03 998.72 999.47 1000.25 1001.04 1001.82 1002.56 1003.25 1003.89 1004.49 1005.04 1005.56 1006.07 1006.57
1005.36 1004.32 1003.21 1002.06 1000.90 999.77 998.70 997.72 996.85 996.12 995.53 995.08 994.77 994.57 994.48 994.46 994.52 994.65 994.84 995.11 995.45 995.88 996.40 997.01 997.70 998.46 999.27 1000.09 1000.91 1001.71 1002.46 1003.16 1003.80 1004.37 1004.91 1005.40 1005.86 1006.32
1005.21 1004.18 1003.06 1001.88 1000.66 999.46 998.30 997.23 996.27 995.44 994.77 994.24 993.87 993.65 993.54 993.54 993.64 993.83 994.10 994.46 994.91 995.44 996.06 996.75 997.52 998.34 999.20 1000.06 1000.90 1001.71 1002.46 1003.15 1003.78 1004.35 1004.85 1005.32 1005.75 1006.16
1005.18 1004.18 1003.09 1001.91 1000.69 999.46 998.26 997.13 996.10 995.19 994.44 993.85 993.42 993.14 993.01 993.00 993.12 993.34 993.67 994.09 994.61 995.22 995.92 996.68 997.50 998.37 999.25 1000.12 1000.97 1001.77 1002.52 1003.20 1003.80 1004.35 1004.84 1005.28 1005.69 1006.06
1005.27 1004.34 1003.31 1002.18 1001.00 999.79 998.60 997.45 996.39 995.44 994.64 993.98 993.49 993.16 992.99 992.95 993.05 993.28 993.62 994.08 994.64 995.28 996.01 996.81 997.65 998.52 999.40 1000.26 1001.09 1001.86 1002.58 1003.23 1003.82 1004.35 1004.82 1005.25 1005.64 1006.01
1005.50 1004.65 1003.70 1002.67 1001.56 1000.42 999.28 998.16 997.12 996.17 995.34 994.65 994.11 993.72 993.49 993.41 993.47 993.67 993.99 994.43 994.98 995.62 996.34 997.12 997.94 998.78 999.62 1000.44 1001.21 1001.94 1002.61 1003.23 1003.79 1004.29 1004.76 1005.18 1005.57 1005.95
Thickness
5736 5734 5732 5731 5729 5727 5724 5721 5715 5709 5710 5712 5712 5713 5711 5709 5707 5705 5703 5701 5699 5697 5694 5692 5690 5688 5686 5684 5682 5681 5679 5678 5677 5675 5674 5673 5671 5670
5735 5733 5732 5730 5728 5726 5724 5721 5719 5714 5710 5712 5710 5710 5708 5706 5704 5701 5699 5697 5695 5693 5691 5688 5686 5684 5681 5680 5678 5676 5675 5673 5672 5670 5669 5668 5666 5665
5734 5733 5731 5730 5727 5725 5722 5720 5717 5714 5709 5709 5708 5706 5704 5702 5699 5697 5695 5693 5691 5689 5686 5684 5681 5679 5677 5675 5674 5672 5671 5669 5667 5665 5664 5662 5661 5660
5733 5731 5730 5728 5725 5723 5720 5718 5715 5713 5709 5706 5704 5701 5700 5698 5695 5693 5691 5689 5686 5684 5682 5679 5677 5675 5673 5671 5669 5667 5666 5664 5662 5660 5659 5657 5656 5654
5731 5729 5728 5725 5722 5720 5718 5715 5713 5711 5707 5704 5701 5698 5695 5693 5690 5688 5686 5683 5681 5679 5677 5675 5673 5670 5668 5666 5664 5662 5661 5659 5657 5655 5653 5651 5650 5648
5730 5728 5726 5723 5721 5718 5716 5713 5710 5706 5703 5700 5697 5694 5691 5688 5685 5683 5681 5679 5677 5675 5673 5671 5668 5666 5663 5661 5660 5658 5656 5654 5652 5650 5648 5646 5644 5642
5726 5725 5724 5721 5719 5716 5714 5710 5706 5702 5698 5695 5692 5689 5687 5683 5681 5679 5677 5675 5672 5670 5668 5666 5664 5662 5660 5658 5656 5654 5652 5650 5648 5646 5643 5641 5639 5636
5722 5721 5720 5718 5716 5713 5711 5708 5704 5699 5695 5691 5689 5686 5685 5682 5679 5676 5672 5669 5667 5667 5663 5663 5660 5658 5656 5655 5653 5651 5648 5646 5643 5641 5639 5636 5633 5631
5717 5716 5715 5714 5711 5709 5706 5703 5701 5698 5695 5692 5688 5686 5683 5681 5676 5672 5669 5666 5665 5664 5659 5658 5656 5655 5654 5652 5650 5648 5645 5642 5639 5636 5633 5631 5628 5626
5712 5711 5709 5708 5706 5703 5700 5697 5696 5694 5691 5688 5687 5685 5682 5679 5675 5671 5667 5663 5661 5658 5655 5654 5653 5651 5651 5649 5647 5644 5641 5638 5635 5632 5629 5626 5623 5620
5707 5706 5704 5703 5701 5697 5694 5691 5689 5689 5687 5684 5682 5680 5677 5673 5670 5665 5660 5657 5656 5654 5651 5649 5650 5647 5646 5645 5643 5640 5637 5634 5630 5627 5624 5621 5618 5615
5701 5699 5697 5696 5694 5690 5687 5685 5683 5682 5680 5677 5675 5673 5670 5667 5664 5661 5658 5654 5652 5650 5649 5645 5644 5641 5641 5641 5638 5635 5632 5629 5625 5622 5619 5616 5613 5609
5693 5692 5691 5688 5685 5682 5680 5679 5678 5676 5672 5670 5668 5666 5664 5661 5659 5656 5654 5651 5648 5647 5646 5641 5639 5636 5634 5634 5632 5629 5626 5623 5620 5617 5614 5611 5608 5604
5685 5684 5683 5680 5677 5675 5673 5671 5669 5665 5663 5662 5660 5659 5658 5656 5654 5651 5649 5647 5645 5643 5640 5636 5634 5631 5628 5626 5625 5623 5620 5617 5614 5612 5609 5606 5603 5600
5677 5676 5673 5670 5668 5666 5664 5662 5659 5657 5655 5654 5653 5653 5651 5649 5647 5644 5642 5639 5637 5636 5634 5630 5628 5626 5623 5621 5620 5617 5614 5612 5609 5606 5603 5601 5599 5596
5666 5665 5663 5660 5659 5657 5655 5653 5651 5649 5648 5647 5647 5645 5643 5640 5638 5636 5634 5632 5630 5629 5627 5625 5622 5619 5617 5616 5613 5611 5609 5606 5604 5600 5598 5596 5593 5591
5656 5655 5653 5652 5650 5649 5647 5645 5643 5641 5639 5639 5637 5635 5634 5632 5630 5628 5626 5624 5622 5622 5620 5617 5614 5612 5611 5609 5607 5606 5603 5601 5599 5595 5592 5590 5590 5588
5646 5646 5645 5643 5642 5640 5639 5637 5635 5633 5632 5630 5628 5627 5625 5624 5622 5620 5618 5617 5616 5615 5613 5610 5607 5604 5602 5602 5601 5600 5597 5595 5593 5589 5587 5585 5586 5584
5638 5638 5636 5634 5633 5632 5630 5628 5627 5625 5623 5621 5620 5619 5617 5615 5614 5612 5610 5608 5607 5606 5605 5602 5600 5597 5596 5597 5598 5593 5591 5589 5586 5584 5582 5581 5581 5581
5629 5629 5628 5626 5625 5623 5622 5620 5619 5617 5615 5613 5612 5610 5608 5607 5606 5604 5602 5600 5599 5598 5597 5595 5593 5591 5590 5590 5589 5588 5585 5582 5580 5578 5577 5575 5574 5572
5620 5619 5619 5618 5617 5616 5614 5612 5611 5609 5608 5605 5603 5601 5600 5598 5597 5596 5595 5592 5590 5590 5589 5588 5587 5583 5581 5579 5579 5580 5579 5575 5574 5572 5571 5569 5567 5566
5611 5610 5609 5608 5607 5606 5605 5604 5603 5601 5600 5597 5596 5593 5592 5590 5589 5588 5586 5585 5584 5583 5583 5581 5578 5575 5572 5572 5573 5573 5571 5568 5566 5564 5563 5563 5562 5562
5601 5600 5599 5598 5597 5596 5595 5595 5594 5593 5591 5590 5588 5586 5584 5583 5582 5581 5579 5578 5577 5576 5574 5572 5569 5567 5565 5564 5564 5563 5563 5561 5559 5558 5557 5556 5555 5555